STARLINK-11385, 62014

Orbit data source: Space-Track

STARLINK-11385, 62014 is a payload satellite owned by SpaceX/Seattle (US) in LEO that was launched on Mon, 18 Nov 2024 UTC via an FALCON 9 launch vehicle from the Air Force Western Test Range (AFWTR). Payload-class satellites include a variety of spacecraft equipped with specific instruments for various scientific and technological missions. These include communications satellites like Starlink; space stations such as the ISS; scientific satellites like the Hubble; Earth observation satellites from companies like Planet Labs, Umbra, and HawkEye 360; GPS; miniature CubeSats for education and research; and military/defense satellites.

Loading next visibility...
Identifier
62014, 2024-213G
Orbit
LEO
Country
Flag of USUS
Related business
Manufacturer
SpaceX/Seattle
Mission
Operational Commercial Communications
Bus & Motor
STARLINK V2MD, Unknown motor
Mass
960 kg wet, ~910 kg dry
Launch date (UTC)
2024-11-18 (10 months ago)
Launch vehicle
FALCON 9
Launch site
Air Force Western Test Range (AFWTR)
Object type
Payload
Rocket body
Debris
Shape & HBR
Box + 2 Pan, 14.5 m
Radar Cross Section
36.964 m², Large (>1 m²)

Expand to show TLE details & history
Last TLE update: 9 hours ago

TLE from 9 hours ago
0 STARLINK-11385
1 62014U 24213G   25259.49525834  .00170701  00000-0  13848-2 0  9990
2 62014  53.1564 180.1496 0001557  88.0350 272.0847 15.69713368 47550
Epoch: 2025-09-16T11:53Z
TLE epoch observation values (Epoch: 2025-09-16T11:53:10.32Z)
Latitude
0.00004°
Longitude
6.17189°
Altitude
360.594 km
Speed
7.694 km/s
True Right ascension
12h 00m 35s
True Declination
0° 00' 00"
Sunlit
Object was in daylight at epoch
Visualization orbit readout
Latitude
Unknown
Longitude
Unknown
Altitude
Unknown
Speed
Unknown
Apparent Right ascension
Unknown
Apparent Declination
Unknown
Sunlit
N/A
Visualization observer readout
Local Sidereal Time
13:42:41
Azimuth
Unknown
Elevation
Unknown
Doppler factor
Unknown
Orbital elements
Apogee altitude
361.028 km
Perigee altitude
358.929 km
Semi-major axis
6,738.115 km
Eccentricity
0.00016
Inclination
53.1564°
RAAN
180.1496°
Arg. of periapsis
88.035°
True anomaly
272.06687°
Mean anomaly
272.0847°
Eccentric anomaly
272.07578°
Mean motion
3.92406 °/min
Orbital period
91.74 mins
BSTAR
0.0013848
Loading maneuver chart data...
Computing Atmospheric mass density...
Loading historical data...
Loading historical data...
Loading historical data...
Loading historical data...
Loading historical data...
Loading historical data...
Loading historical data...

Documentation

Showing up to 5 results
|